Temp
11 11 11 10 10 10 10 10 10 9 9 9 9 9 10 10 10 10 10 9 9 8 8 8 7 7 7 7 7 7 6 6 7 7 7 6 6 6 6 6 5 5
11 11 11 10 10 10 10 10 10 10 9 9 9 9 9 10 10 10 10 9 9 8 8 8 7 7 7 7 7 6 6 6 6 6 6 6 6 6 5 5 5 5
11 11 11 11 10 10 10 10 10 10 10 9 9 9 9 9 10 10 9 9 9 8 8 8 8 7 7 7 6 6 6 6 6 6 6 6 6 6 5 5 5 5
11 11 11 11 11 10 10 10 10 10 9 9 9 9 9 9 9 9 9 9 9 8 8 8 7 7 7 7 7 6 6 6 6 6 6 5 5 5 5 5 5 5
11 11 11 11 11 11 10 10 10 9 9 9 9 9 9 9 9 9 9 9 9 8 8 8 7 7 7 7 7 7 6 6 6 5 5 5 5 5 5 5 5 5
10 11 11 11 11 10 10 10 9 9 9 9 9 9 9 9 9 9 9 9 8 8 8 7 7 7 7 7 7 6 6 6 5 5 5 5 5 5 5 5 5 5
10 10 10 10 10 10 9 9 9 9 9 9 9 9 9 9 9 9 9 8 8 8 7 7 7 7 7 7 6 6 6 6 5 5 5 5 5 5 5 5 5 4
10 10 9 9 9 9 9 9 9 9 9 9 9 9 9 9 9 9 9 8 8 7 7 7 7 6 6 6 6 6 6 6 6 5 5 5 5 5 5 5 4 4
10 9 9 9 9 9 8 9 9 8 9 9 9 9 9 9 9 9 8 8 7 7 7 7 6 6 6 6 6 6 6 6 6 5 5 5 5 5 5 4 4 4
9 8 8 8 8 8 8 8 8 8 8 8 8 8 9 9 9 9 8 8 7 7 7 7 6 6 6 6 6 6 6 6 6 5 5 5 5 5 5 5 4 4
8 8 8 8 8 8 8 8 8 8 8 8 8 8 8 9 8 8 8 8 7 7 7 7 6 6 6 6 6 6 6 6 5 5 5 5 5 5 5 5 4 4
8 8 9 8 8 8 8 8 8 8 8 8 8 8 8 8 8 8 8 8 7 7 7 6 6 6 6 6 6 6 6 5 5 5 5 5 5 5 4 4 4 4
8 8 8 7 7 7 7 7 7 7 7 7 7 8 8 8 8 8 8 7 7 7 6 6 6 6 6 6 5 5 5 5 5 5 5 5 4 4 4 4 3 3
8 8 8 7 6 6 6 7 7 7 7 7 7 8 8 8 8 8 7 7 7 7 7 7 6 6 5 5 5 5 5 5 5 5 5 5 4 4 3 3 3 3
9 8 8 8 7 7 6 7 7 7 7 8 8 8 8 8 8 8 7 7 7 7 7 6 6 6 5 5 5 5 5 5 5 5 5 5 4 4 4 3 3 2
9 8 8 8 8 8 7 7 6 6 8 8 8 8 7 7 8 7 7 7 7 7 6 6 6 5 5 4 4 4 5 5 5 5 5 5 4 4 4 3 3 2
9 8 8 8 8 8 7 7 6 7 8 8 8 8 7 7 7 7 7 7 7 7 6 6 5 5 4 4 4 4 4 5 5 5 5 4 4 4 3 3 3 3
9 8 9 9 8 8 8 8 7 8 8 7 7 8 7 7 7 7 7 7 7 6 6 5 5 5 5 4 4 4 4 5 5 5 5 4 4 4 3 3 3 2
9 9 9 9 9 9 9 8 8 7 7 7 7 7 7 7 7 7 7 6 6 6 6 5 5 5 5 5 5 4 4 5 5 4 4 4 4 4 4 3 3 2
9 9 9 9 9 8 8 8 7 7 7 7 7 7 7 7 7 6 6 6 6 6 5 5 5 4 4 5 4 4 4 4 4 4 4 4 4 4 3 3 3 2
9 9 9 9 8 8 7 7 7 7 7 7 7 7 7 7 6 6 6 6 5 5 5 5 4 4 4 4 4 4 4 4 4 4 4 4 3 3 3 3 3 2
9 8 8 8 7 7 6 6 7 7 7 7 7 7 7 6 6 6 6 5 5 5 5 5 4 4 4 4 4 4 4 4 4 4 4 3 3 3 3 2 2 2
9 9 8 7 7 6 6 6 7 7 7 7 7 7 7 6 6 6 5 5 5 5 5 4 4 4 4 4 4 4 4 4 3 3 3 3 2 2 2 2 2 2
9 9 8 7 6 6 6 6 7 7 7 7 7 7 6 6 6 5 5 5 5 5 5 4 4 4 4 4 4 4 3 3 2 3 3 2 2 2 2 2 2 2
8 8 8 7 7 6 6 6 7 7 7 7 6 6 6 5 5 5 5 5 5 5 4 4 4 4 4 4 3 3 3 2 2 2 2 2 2 3 2 2 2 2
8 8 7 7 7 6 6 6 6 6 6 6 6 5 5 5 5 5 5 5 5 5 4 4 4 4 4 3 3 3 3 2 2 2 2 2 3 3 2 2 2 2
Height
3188 3189 3189 3188 3187 3187 3187 3186 3186 3185 3184 3183 3182 3181 3180 3179 3177 3175 3173 3172 3171 3169 3168 3167 3167 3166 3166 3165 3164 3163 3162 3161 3160 3160 3159 3158 3158 3157 3157 3156 3156 3155
3186 3187 3187 3186 3186 3185 3185 3184 3184 3183 3183 3182 3181 3180 3179 3178 3176 3174 3173 3172 3171 3169 3168 3167 3166 3166 3165 3165 3164 3163 3161 3160 3159 3158 3157 3157 3156 3156 3155 3155 3154 3154
3184 3184 3184 3184 3184 3183 3183 3183 3182 3182 3181 3181 3180 3179 3178 3176 3175 3173 3172 3171 3170 3169 3168 3167 3166 3165 3164 3163 3162 3161 3160 3159 3157 3157 3156 3155 3155 3154 3154 3153 3153 3152
3182 3182 3182 3182 3182 3182 3181 3181 3181 3180 3180 3179 3179 3177 3176 3174 3173 3172 3171 3170 3169 3168 3167 3166 3165 3164 3163 3161 3160 3159 3159 3158 3157 3156 3155 3154 3153 3152 3152 3151 3151 3150
3179 3180 3180 3180 3180 3179 3179 3179 3179 3179 3178 3178 3177 3175 3174 3172 3171 3170 3169 3168 3167 3167 3166 3165 3164 3162 3161 3160 3159 3158 3157 3157 3156 3154 3153 3152 3151 3150 3149 3149 3149 3148
3176 3177 3177 3177 3177 3177 3177 3177 3177 3177 3176 3176 3175 3173 3172 3170 3169 3168 3167 3166 3165 3164 3164 3163 3162 3161 3159 3158 3157 3156 3155 3155 3154 3153 3152 3150 3149 3148 3147 3147 3146 3146
3173 3174 3174 3174 3174 3174 3174 3174 3174 3174 3174 3173 3173 3171 3170 3168 3167 3166 3165 3164 3163 3162 3162 3162 3161 3159 3158 3156 3155 3154 3153 3152 3151 3150 3149 3148 3147 3146 3145 3144 3144 3144
3169 3170 3171 3171 3172 3172 3172 3172 3172 3172 3172 3171 3171 3169 3168 3166 3165 3164 3163 3162 3161 3161 3160 3159 3158 3157 3156 3155 3154 3152 3151 3149 3148 3148 3147 3146 3145 3144 3142 3142 3141 3141
3164 3166 3168 3169 3170 3171 3170 3171 3170 3170 3170 3169 3169 3167 3166 3164 3163 3162 3161 3160 3159 3159 3158 3157 3156 3155 3154 3153 3152 3150 3149 3147 3146 3145 3145 3144 3143 3141 3140 3139 3138 3138
3158 3162 3166 3167 3167 3168 3168 3169 3168 3168 3168 3167 3166 3165 3164 3163 3162 3161 3159 3159 3158 3157 3156 3155 3155 3153 3152 3151 3150 3148 3147 3146 3145 3144 3143 3141 3140 3139 3138 3136 3135 3135
3154 3159 3162 3162 3163 3165 3165 3166 3165 3165 3165 3165 3164 3163 3162 3161 3160 3159 3158 3157 3156 3155 3154 3153 3152 3151 3150 3149 3148 3147 3146 3144 3143 3142 3140 3139 3138 3136 3135 3134 3133 3132
3152 3157 3156 3157 3159 3160 3161 3162 3162 3162 3162 3162 3161 3161 3160 3158 3158 3157 3156 3155 3154 3152 3151 3150 3150 3149 3148 3147 3146 3145 3144 3142 3141 3139 3138 3137 3135 3134 3132 3131 3130 3129
3152 3155 3153 3155 3156 3156 3158 3159 3159 3159 3159 3158 3158 3158 3157 3156 3156 3155 3153 3152 3151 3150 3149 3148 3147 3146 3145 3144 3143 3142 3141 3139 3138 3136 3135 3134 3132 3131 3129 3128 3127 3126
3148 3149 3150 3152 3153 3153 3155 3155 3154 3154 3155 3155 3155 3155 3155 3154 3154 3152 3151 3150 3149 3147 3146 3145 3143 3142 3141 3140 3139 3139 3137 3136 3135 3133 3132 3130 3129 3127 3126 3124 3123 3122
3140 3141 3144 3148 3148 3149 3150 3150 3150 3150 3152 3152 3151 3151 3152 3152 3151 3150 3148 3147 3146 3144 3143 3141 3140 3139 3138 3137 3137 3136 3134 3133 3132 3130 3128 3127 3125 3124 3122 3121 3120 3118
3133 3134 3140 3143 3143 3144 3144 3144 3144 3147 3149 3148 3147 3148 3150 3149 3148 3147 3145 3144 3143 3141 3140 3138 3137 3136 3136 3135 3134 3133 3131 3130 3129 3127 3125 3124 3122 3120 3119 3118 3116 3114
3130 3132 3135 3136 3137 3138 3139 3139 3141 3144 3145 3145 3144 3145 3146 3146 3145 3143 3142 3141 3140 3139 3138 3136 3135 3135 3134 3133 3132 3130 3129 3127 3126 3124 3123 3121 3119 3117 3116 3115 3113 3111
3128 3130 3132 3132 3132 3133 3134 3136 3139 3140 3141 3141 3141 3142 3143 3143 3142 3141 3140 3139 3138 3137 3136 3135 3134 3134 3132 3131 3130 3129 3127 3124 3123 3121 3120 3118 3116 3114 3113 3111 3109 3108
3124 3126 3127 3127 3128 3129 3130 3132 3134 3135 3136 3138 3138 3139 3140 3140 3139 3138 3137 3136 3135 3135 3134 3134 3133 3132 3131 3129 3128 3126 3124 3122 3120 3118 3117 3115 3113 3111 3109 3107 3105 3103
3119 3119 3121 3122 3124 3126 3128 3129 3131 3132 3134 3135 3135 3136 3137 3137 3137 3136 3135 3134 3133 3132 3132 3132 3131 3130 3128 3127 3125 3123 3121 3119 3117 3115 3113 3112 3110 3107 3105 3103 3101 3099
3114 3115 3116 3117 3118 3121 3123 3126 3128 3130 3131 3132 3132 3133 3134 3134 3133 3133 3132 3131 3131 3130 3130 3129 3128 3127 3125 3124 3122 3120 3118 3116 3114 3112 3109 3107 3106 3104 3101 3099 3097 3095
3110 3111 3111 3112 3114 3117 3121 3124 3126 3128 3129 3129 3130 3130 3130 3131 3130 3130 3129 3129 3128 3128 3127 3126 3125 3123 3121 3120 3118 3116 3114 3112 3110 3107 3105 3103 3101 3100 3097 3095 3093 3091
3106 3106 3107 3109 3113 3116 3120 3122 3124 3126 3127 3127 3127 3127 3128 3128 3128 3127 3127 3126 3126 3125 3124 3123 3121 3120 3117 3116 3114 3112 3110 3108 3106 3103 3101 3099 3097 3095 3093 3091 3089 3087
3104 3104 3105 3109 3112 3115 3117 3119 3122 3124 3125 3125 3125 3125 3125 3125 3125 3125 3124 3123 3122 3122 3120 3119 3118 3116 3114 3112 3110 3108 3106 3104 3102 3100 3097 3095 3094 3092 3090 3087 3085 3083
3102 3102 3105 3108 3111 3112 3115 3117 3119 3121 3122 3122 3122 3122 3122 3123 3122 3122 3121 3119 3118 3118 3117 3116 3115 3113 3111 3109 3107 3104 3103 3100 3098 3096 3093 3092 3090 3088 3086 3084 3081 3079
3099 3100 3104 3107 3109 3110 3112 3114 3116 3118 3118 3118 3119 3119 3119 3119 3118 3117 3116 3115 3114 3114 3114 3113 3111 3109 3107 3105 3103 3100 3098 3096 3094 3091 3090 3088 3086 3084 3082 3081 3079 3077
Wind_Speed
10 8 7 6 7 8 10 12 13 15 17 19 22 24 26 27 28 27 25 22 18 14 12 11 11 10 10 11 11 12 12 13 13 14 14 15 16 17 17 18 18 18
13 12 11 10 10 11 13 14 15 16 17 19 21 24 25 26 27 27 25 22 17 14 12 11 11 10 10 11 11 12 12 13 13 13 13 14 15 16 17 17 17 18
17 16 14 14 14 15 16 17 18 18 19 20 21 23 25 26 27 27 25 22 17 13 12 11 11 10 10 11 12 12 13 13 14 14 14 14 14 15 16 17 17 18
21 19 19 19 19 19 20 21 22 21 21 21 22 23 24 25 26 26 25 22 17 13 11 10 10 10 10 11 12 13 13 13 14 14 14 13 14 14 15 16 17 18
24 23 23 23 23 23 23 24 24 23 22 23 22 22 23 24 25 25 24 20 15 12 11 10 10 10 10 11 12 12 12 13 14 14 14 14 14 14 15 16 17 18
28 27 26 26 26 26 26 26 26 25 24 24 23 22 22 23 23 24 22 18 13 11 11 11 11 11 12 13 13 14 13 13 13 14 14 14 14 14 15 16 17 19
30 29 30 29 28 28 27 27 26 25 25 24 23 22 22 22 22 22 20 15 12 10 11 11 12 12 14 15 16 16 16 15 14 14 14 14 15 15 16 17 18 19
31 29 30 31 30 29 28 28 27 26 25 24 23 22 21 21 21 21 19 14 11 10 11 12 13 13 15 16 17 17 17 17 17 17 16 16 16 16 17 18 19 19
35 30 30 32 31 30 29 28 27 26 23 22 22 21 21 21 21 20 17 12 10 10 11 11 12 14 16 17 17 17 17 18 18 19 18 17 18 18 18 19 20 20
41 33 30 32 32 30 29 28 26 24 22 20 20 20 20 20 20 18 15 11 10 10 10 12 13 15 16 17 18 18 18 18 19 19 19 19 20 20 20 21 21 22
45 36 30 32 32 30 30 28 26 24 22 20 20 21 20 19 19 17 14 12 11 11 12 13 14 15 16 17 18 19 19 19 20 20 21 22 22 22 23 23 23 23
45 38 32 29 31 33 32 29 28 26 22 21 22 21 18 18 18 16 15 13 12 12 13 15 15 15 16 16 17 19 20 20 21 21 22 23 23 24 24 24 25 24
43 39 35 29 28 32 31 29 30 27 24 22 20 17 16 17 17 16 15 13 13 14 15 16 17 17 17 17 17 19 20 21 21 22 22 23 24 24 25 26 26 27
44 42 41 33 28 31 30 29 31 30 28 25 17 13 16 17 17 16 15 13 14 15 16 18 18 19 18 18 19 20 21 21 22 23 23 24 24 25 26 27 27 28
49 46 42 36 32 31 31 32 33 29 25 21 14 12 15 17 17 17 15 14 15 17 18 19 19 19 20 20 20 21 21 22 23 24 25 25 25 26 26 27 28 29
53 48 40 36 34 31 30 36 35 25 19 17 14 14 15 17 19 17 14 15 16 18 19 20 20 20 20 21 21 22 23 24 25 25 26 26 26 26 27 27 29 30
53 46 37 33 33 30 30 34 28 17 15 16 15 16 18 19 19 17 15 16 17 19 20 20 20 21 21 21 21 22 25 26 26 26 26 26 26 26 27 27 28 29
46 38 29 27 29 28 27 28 21 15 16 17 16 18 21 20 19 17 16 17 18 19 19 19 20 21 21 21 21 23 26 27 27 27 26 25 25 26 27 28 28 28
37 32 28 26 26 25 23 22 21 19 19 19 18 19 19 18 18 17 16 17 18 18 17 18 19 19 20 22 23 25 27 28 28 27 26 25 25 27 29 29 30 30
32 31 30 28 27 25 21 21 23 21 19 20 20 19 17 17 17 17 17 18 17 17 17 17 18 19 21 22 24 25 27 28 29 28 27 26 26 28 30 31 32 33
31 29 28 28 29 27 23 22 23 22 21 21 20 17 16 17 18 18 19 19 19 19 18 18 19 21 23 24 24 26 27 28 29 29 29 29 28 29 31 32 33 35
28 29 29 29 28 26 23 21 20 21 21 20 18 16 16 17 19 19 20 21 21 21 21 21 21 23 26 26 25 26 27 29 30 30 31 31 31 31 32 34 35 36
22 26 29 26 24 22 19 17 18 20 20 18 16 16 17 18 19 20 22 24 25 24 23 23 23 26 28 28 26 27 28 29 31 32 32 32 32 33 34 34 35 35
18 23 27 22 19 19 17 15 16 18 17 16 16 16 17 18 20 22 25 27 27 27 26 24 25 29 30 28 27 28 29 30 32 33 33 33 33 34 34 34 34 33
19 23 25 19 15 17 15 13 15 16 15 16 17 17 18 20 23 26 29 31 31 29 26 25 27 30 30 28 27 28 29 30 33 34 33 34 34 34 33 31 30 28
22 22 20 15 14 15 14 15 16 17 18 18 17 17 19 22 24 28 32 35 35 31 26 26 29 30 29 28 27 29 30 31 33 34 34 34 34 33 30 27 24 22
Wind_Direction
241 246 262 278 288 299 309 316 324 330 334 339 342 342 341 343 347 350 348 345 342 340 339 336 334 330 324 320 317 316 315 314 312 312 312 310 309 306 302 299 299 299
246 252 261 271 276 282 292 300 306 313 319 327 334 337 337 338 343 347 345 342 339 338 339 336 332 327 321 318 317 316 316 316 314 313 312 311 310 309 307 304 302 301
250 257 264 271 273 277 284 290 294 299 305 313 322 330 334 335 339 343 343 339 336 337 337 333 329 327 326 324 322 322 322 320 316 315 314 312 309 308 305 304 302 300
252 258 264 270 274 276 280 285 289 293 299 305 313 322 329 332 336 340 340 336 334 334 334 331 330 331 332 332 328 324 321 317 312 310 309 306 304 303 301 300 300 298
251 257 262 267 272 276 279 283 287 291 296 302 307 316 324 328 333 337 337 333 330 331 333 330 331 334 335 334 329 323 317 310 305 302 302 300 299 299 296 296 296 295
248 254 259 264 268 272 276 279 284 289 294 300 304 312 320 325 331 334 333 329 327 330 331 328 329 333 335 333 330 325 317 309 302 299 300 299 298 298 295 293 293 292
250 254 257 261 264 267 271 275 280 285 290 296 301 308 316 322 328 331 329 326 325 327 325 325 329 332 334 334 332 327 321 315 310 307 305 303 301 300 298 295 294 292
250 253 255 256 258 262 266 271 277 281 286 293 297 303 312 319 324 326 325 320 317 320 321 325 330 332 333 333 330 327 324 320 318 314 310 307 304 302 298 295 295 293
247 249 252 253 254 257 263 268 273 277 283 289 293 300 309 316 321 321 317 312 308 312 317 322 328 330 330 330 328 327 325 322 318 314 310 307 304 301 299 297 297 297
243 242 244 246 249 252 258 264 268 270 276 283 291 301 307 311 315 313 306 300 297 301 309 315 322 326 326 326 327 326 325 321 316 312 310 307 304 302 301 300 300 301
239 241 241 240 243 248 255 259 260 264 269 277 288 296 303 307 308 304 296 291 293 299 307 312 318 321 321 321 322 323 323 320 316 312 310 306 304 302 300 300 300 301
242 246 247 244 242 243 248 252 254 260 267 275 284 290 297 303 300 294 291 290 295 301 306 311 315 316 317 317 318 320 320 319 317 314 310 306 303 300 299 299 299 300
248 247 248 248 242 236 240 247 250 254 262 271 281 289 294 296 292 288 288 290 296 301 304 311 315 316 317 315 316 318 318 318 316 313 310 307 303 301 299 298 298 298
257 251 249 249 242 232 233 242 246 251 261 270 277 285 290 289 284 283 287 292 298 303 307 314 318 318 317 314 314 316 316 316 314 313 312 309 305 302 299 297 296 297
266 258 259 262 257 246 241 242 243 249 264 278 282 282 283 283 280 282 290 297 302 307 312 316 318 317 314 311 313 314 314 315 315 315 313 309 306 303 299 297 294 294
266 262 271 273 267 262 253 244 241 245 262 276 282 283 281 279 280 285 293 300 305 310 312 314 315 314 310 308 310 311 313 315 315 314 312 308 306 305 304 302 298 295
266 268 280 281 272 269 259 249 245 242 252 265 277 283 280 277 279 285 293 300 306 308 309 310 311 310 306 303 304 306 311 314 314 313 311 308 305 304 305 306 303 301
274 275 283 287 283 279 271 261 251 237 246 263 275 276 272 272 277 283 291 298 302 305 307 309 310 309 305 301 300 304 309 313 314 313 310 307 305 304 304 305 304 303
282 275 272 276 280 282 278 260 238 232 250 266 271 265 262 267 275 282 288 294 300 304 306 308 309 307 304 301 301 304 308 311 312 311 308 306 305 305 305 305 305 303
279 273 269 269 272 274 269 248 233 238 254 262 261 256 256 266 274 279 284 291 297 299 300 304 306 304 302 302 302 303 306 309 310 309 308 307 306 305 304 304 304 302
272 270 270 272 269 259 244 233 235 245 255 258 255 250 256 268 273 278 285 289 291 291 294 301 304 304 305 305 303 303 306 308 308 308 307 307 307 306 304 304 303 303
270 268 269 269 264 249 230 224 236 250 256 253 247 247 257 268 274 281 286 285 286 289 291 297 302 305 308 308 306 306 308 307 307 307 307 308 307 307 306 306 305 304
265 268 267 264 260 251 239 234 242 250 250 245 243 251 262 270 276 281 282 282 286 288 288 294 300 304 307 309 307 307 307 306 304 305 306 306 307 307 307 306 305 302
251 260 266 266 256 244 237 236 241 243 242 243 249 257 263 268 274 276 277 281 286 286 285 290 297 302 305 307 305 305 306 303 300 301 303 304 305 306 307 306 304 301
242 252 262 259 238 231 232 231 234 238 239 245 254 260 265 270 275 277 277 279 284 287 286 286 293 300 302 302 302 302 301 298 297 299 302 304 306 307 307 306 303 300
238 244 250 236 213 218 223 220 224 230 235 244 253 260 267 274 280 283 282 280 283 286 284 285 293 300 300 299 300 300 299 297 297 300 303 306 307 307 306 303 300 298